Alamosa, CO

5:22 AM MST on December 11, 2019 (GMT -0700)
San Luis Valley Regional / Bergman Field

Weather History for KALS - November, 2019

Change the Weather History Date:

Friday, November 22, 2019

  Actual Average Record
Temperature  
Mean Temperature 29 °F 26 °F  
Max Temperature 42 °F 43 °F 64 °F (1998)
Min Temperature 16 °F 9 °F -24 °F (1957)
Degree Days  
Heating Degree Days 36 39  
Month to date heating degree days 706 737  
Since 1 July heating degree days 1774 1847  
Cooling Degree Days 0 0  
Month to date cooling degree days 0 0  
Year to date cooling degree days 72 51  
Moisture  
Dew Point 21 °F    
Average Humidity 69    
Maximum Humidity 92    
Minimum Humidity 46    
Precipitation  
Precipitation T in 0.01 in 0.73 in (2013)
Month to date precipitation 0.02 0.33  
Year to date precipitation 6.87 6.87  
Snow  
Snow T in 0.20 in 7.00 in (2013)
Month to date snowfall 0.1 2.7  
Since 1 July snowfall 0.7 4.8  
Since 1 September snowfall 0.7 4.8  
Snow Depth 0.00 in    
Sea Level Pressure  
Sea Level Pressure 30.05 in    
Wind  
Wind Speed 5 mph (North)    
Max Wind Speed 14 mph    
Max Gust Speed 17 mph    
Visibility 10 miles    
Events      
T = Trace of Precipitation, MM = Missing Value Source: NWS Daily Summary

Daily Weather History Graph

Daily Weather History Graph

Search for Another Location

Airport or City:

Astronomy

Nov. 22, 2019 Rise Set
Actual Time 6:50 AM MST 4:48 PM MST
Civil Twilight 6:21 AM MST 5:17 PM MST
Nautical Twilight 5:49 AM MST 5:48 PM MST
Astronomical Twilight 5:18 AM MST 6:20 PM MST
Moon 2:06 AM MST (11/22) 2:44 PM MST (11/22)
Length of Visible Light 10h 55m
Length of Day
9h 58m
Waning Crescent, 19% of the Moon is Illuminated
Nov 22
Waning Crescent
Nov 26
New
Dec 3
First Quarter
Dec 11
Full
Dec 18
Last Quarter

Hourly Weather History & Observations

Time (MST) Temp. Windchill Dew Point Humidity Pressure Visibility Wind Dir Wind Speed Gust Speed Precip Events Conditions
12:52 AM 26.1 °F - 24.1 °F 92% 30.00 in 10.0 mi Calm Calm - N/A   Clear
1:52 AM 24.1 °F 16.0 °F 21.0 °F 88% 30.01 in 10.0 mi SSE 6.9 mph - N/A   Mostly Cloudy
2:52 AM 26.1 °F - 23.0 °F 88% 30.00 in 10.0 mi Calm Calm - N/A   Overcast
3:52 AM 25.0 °F 19.3 °F 21.0 °F 85% 30.01 in 10.0 mi WSW 4.6 mph - N/A   Overcast
4:52 AM 27.0 °F 20.5 °F 23.0 °F 85% 30.01 in 10.0 mi SW 5.8 mph - N/A   Overcast
5:52 AM 23.0 °F 17.0 °F 21.0 °F 92% 30.06 in 10.0 mi ESE 4.6 mph - N/A   Overcast
6:52 AM 26.1 °F 21.9 °F 23.0 °F 88% 30.06 in 10.0 mi NNE 3.5 mph - N/A   Overcast
7:52 AM 28.0 °F 22.8 °F 25.0 °F 88% 30.07 in 10.0 mi East 4.6 mph - N/A   Overcast
8:52 AM 30.9 °F 24.3 °F 27.0 °F 85% 30.06 in 10.0 mi ESE 6.9 mph - N/A   Scattered Clouds
9:52 AM 35.1 °F 29.3 °F 27.0 °F 72% 30.04 in 10.0 mi SE 6.9 mph - N/A   Overcast
10:52 AM 39.0 °F 36.8 °F 23.0 °F 53% 29.99 in 10.0 mi Variable 3.5 mph - N/A   Scattered Clouds
11:52 AM 39.0 °F 35.7 °F 21.9 °F 50% 29.97 in 10.0 mi Variable 4.6 mph - N/A   Mostly Cloudy
12:52 PM 39.9 °F 33.9 °F 21.0 °F 47% 29.97 in 10.0 mi NNW 9.2 mph - N/A   Overcast
1:52 PM 37.9 °F 32.1 °F 25.0 °F 60% 29.99 in 10.0 mi NNW 8.1 mph - N/A   Overcast
3:52 PM 37.9 °F 35.5 °F 24.1 °F 57% 29.99 in 10.0 mi Variable 3.5 mph - N/A   Overcast
5:52 PM 37.0 °F 31.6 °F 18.0 °F 46% 30.05 in 10.0 mi NNE 6.9 mph - N/A   Overcast
6:52 PM 32.0 °F 25.6 °F 16.0 °F 52% 30.08 in 10.0 mi North 6.9 mph - N/A   Scattered Clouds
7:52 PM 30.9 °F 24.3 °F 17.1 °F 57% 30.09 in 10.0 mi North 6.9 mph - N/A   Clear
8:52 PM 28.0 °F 20.0 °F 17.1 °F 63% 30.12 in 10.0 mi North 8.1 mph - N/A   Clear
9:52 PM 28.0 °F 18.6 °F 16.0 °F 61% 30.13 in 10.0 mi NNW 10.4 mph - N/A   Clear
10:52 PM 24.1 °F 16.0 °F 15.1 °F 69% 30.15 in 10.0 mi NW 6.9 mph - N/A   Clear
11:52 PM 19.0 °F - 12.9 °F 77% 30.18 in 10.0 mi Calm Calm - N/A   Clear